Location: Alsip
(41.6689°N, 87.7387°W)
Time: 13:25:27
(UTC+00:00)

SL-8 Rocket - Pass Details

Date: 14 July 2020
Orbit: 957 x 990 km, 82.9° (Epoch: 04 August)

Event Time Altitude Azimuth Distance (km) Brightness Sun altitude
Exits shadow 04:32:33 44° 198° (SSW) 1,307 4.3 -23.8°
Maximum altitude 04:34:40 80° 277° (W) 977 3.9 -23.9°
Drops below altitude 10° 04:40:51 10° 5° (N) 2,698 7.2 -24.3°
Sets 04:43:22 0° 7° (N) 3,648 8.0 -24.5°
